St. Joseph, KS

7:14 AM CST on December 10, 2019 (GMT -0600)
Rosecrans Memorial

Weather History for KSTJ - July, 2019

Change the Weather History Date:

Tuesday, July 16, 2019

  Actual Average Record
Temperature  
Mean Temperature 80 °F 77 °F  
Max Temperature 91 °F 87 °F 107 °F (1936)
Min Temperature 68 °F 67 °F 54 °F (1967)
Degree Days  
Heating Degree Days 0 0  
Month to date heating degree days 0 0  
Since 1 June heating degree days 1 8  
Since 1 July heating degree days 0 0  
Cooling Degree Days 15 12  
Month to date cooling degree days 237 190  
Year to date cooling degree days 631 570  
Since 1 June cooling degree days 530 457  
Growing Degree Days 29 (Base 50)    
Moisture  
Dew Point 70 °F    
Average Humidity 73    
Maximum Humidity 93    
Minimum Humidity 52    
Precipitation  
Precipitation 0.00 in 0.19 in 2.53 in (2004)
Month to date precipitation 0.22 2.53  
Year to date precipitation 21.49 19.66  
Sea Level Pressure  
Sea Level Pressure 29.88 in    
Wind  
Wind Speed 5 mph (South)    
Max Wind Speed 12 mph    
Max Gust Speed 19 mph    
Visibility 8 miles    
Events      
T = Trace of Precipitation, MM = Missing Value Source: NWS Daily Summary

Daily Weather History Graph

Daily Weather History Graph

Search for Another Location

Airport or City:

Astronomy

Jul. 16, 2019 Rise Set
Actual Time 6:04 AM CDT 8:46 PM CDT
Civil Twilight 5:33 AM CDT 9:17 PM CDT
Nautical Twilight 4:53 AM CDT 9:57 PM CDT
Astronomical Twilight 4:08 AM CDT 10:41 PM CDT
Moon 8:53 PM CDT (7/16) 5:43 AM CDT (7/16)
Length of Visible Light 15h 44m
Length of Day
14h 41m
Full, 100% of the Moon is Illuminated
Jul 16
Full
Jul 16
Full
Jul 24
Last Quarter
Jul 31
New
Aug 7
First Quarter

Hourly Weather History & Observations

Time (CDT) Temp. Heat Index Dew Point Humidity Pressure Visibility Wind Dir Wind Speed Gust Speed Precip Events Conditions
12:53 AM 73.0 °F - 66.9 °F 81% 29.90 in 8.0 mi SSE 4.6 mph - N/A   Clear
1:53 AM 71.1 °F - 66.9 °F 87% 29.88 in 7.0 mi South 3.5 mph - N/A   Clear
2:53 AM 71.1 °F - 66.9 °F 87% 29.89 in 7.0 mi WSW 3.5 mph - N/A   Clear
3:53 AM 71.1 °F - 66.9 °F 87% 29.88 in 7.0 mi SE 3.5 mph - N/A   Clear
4:53 AM 69.1 °F - 66.0 °F 90% 29.88 in 8.0 mi Calm Calm - N/A   Clear
5:53 AM 68.0 °F - 66.0 °F 93% 29.88 in 9.0 mi SSE 3.5 mph - N/A   Clear
6:53 AM 69.1 °F - 66.9 °F 93% 29.90 in 8.0 mi Calm Calm - N/A   Clear
7:53 AM 73.9 °F - 69.1 °F 85% 29.94 in 10.0 mi Calm Calm - N/A   Clear
8:53 AM 75.9 °F - 69.1 °F 79% 29.96 in 10.0 mi NNW 3.5 mph - N/A   Partly Cloudy
9:53 AM 77.0 °F - 69.1 °F 76% 29.94 in 10.0 mi NW 3.5 mph - N/A   Clear
10:53 AM 78.1 °F - 69.1 °F 74% 29.92 in 10.0 mi SSW 5.8 mph - N/A   Clear
11:53 AM 82.0 °F 86.3 °F 71.1 °F 69% 29.88 in 10.0 mi SSW 9.2 mph - N/A   Clear
12:53 PM 84.9 °F 90.7 °F 72.0 °F 65% 29.87 in 10.0 mi SSW 9.2 mph - N/A   Clear
1:53 PM 86.0 °F 92.2 °F 72.0 °F 63% 29.86 in 9.0 mi South 6.9 mph - N/A   Clear
2:53 PM 89.1 °F 95.0 °F 71.1 °F 55% 29.85 in 9.0 mi SSE 6.9 mph - N/A   Clear
3:53 PM 90.0 °F 96.9 °F 72.0 °F 55% 29.84 in 9.0 mi SSW 8.1 mph - N/A   Clear
4:53 PM 90.0 °F 95.4 °F 70.0 °F 52% 29.85 in 8.0 mi WSW 5.8 mph - N/A   Clear
5:53 PM 89.1 °F 97.0 °F 73.0 °F 59% 29.86 in 8.0 mi South 5.8 mph - N/A   Clear
6:53 PM 88.0 °F 96.5 °F 73.9 °F 63% 29.85 in 8.0 mi South 3.5 mph - N/A   Mostly Cloudy
7:53 PM 87.1 °F 94.5 °F 73.0 °F 63% 29.85 in 8.0 mi SSW 6.9 mph - N/A   Partly Cloudy
8:53 PM 84.0 °F 90.2 °F 73.0 °F 69% 29.85 in 8.0 mi South 5.8 mph - N/A   Mostly Cloudy
9:53 PM 81.0 °F 85.8 °F 73.0 °F 77% 29.86 in 8.0 mi South 5.8 mph - N/A   Clear
10:53 PM 80.1 °F 83.8 °F 72.0 °F 76% 29.88 in 8.0 mi South 4.6 mph - N/A   Clear
11:53 PM 78.1 °F - 72.0 °F 81% 29.88 in 8.0 mi South 3.5 mph - N/A   Clear